Hourly Weather Roundup
Issued by NWS Central Illinois

Home | Current Version | Previous Version | Text Only | Print | Product List | Glossary On
Versions: 1 2 3 4 5 6 7 8 9 10 11 12 13 14 15 16 17 18 19 20 21 22 23 24 25 26 27 28 29 30 31 32 33 34 35 36 37 38 39 40 41 42 43 44 45 46 47 48 49 50
000
NZUS43 KILX 021610
HWRILX

AREA WEATHER ROUNDUP
NATIONAL WEATHER SERVICE, LINCOLN IL
1000 AM CST MON MAR 02 2015


CITY           SKY/WX    TMP DP  RH WIND       PRES   REMARKS
BLOOMINGTON    SUNNY     25  15  65 N5        30.53R WCI  19
CHAMPAIGN      SUNNY     17  13  84 W5        30.54R FOG     WCI  10
DECATUR        MOSUNNY   25  15  66 N8        30.55R WCI  16
FLORA          FAIR      26  21  80 NE3       30.57S
GALESBURG      SUNNY     20  14  76 CALM      30.54S
JACKSONVILLE   MOSUNNY   24  20  84 CALM      30.55S FOG
LACON          SUNNY     21  11  65 CALM      30.54R
LAWRENCEVILLE  FAIR      27  18  69 CALM      30.58S
LITCHFIELD     PTSUNNY   20  18  91 CALM      30.54F
$$


CITY           SKY/WX    TMP DP  RH WIND       PRES   REMARKS
LINCOLN        MOSUNNY   20  14  79 CALM      30.57S
MACOMB         SUNNY     20  15  79 CALM      30.56S
MATTOON        MOSUNNY   24  16  71 CALM      30.55R
MT CARMEL AP   SUNNY     32  19  59 CALM      30.57F
OLNEY-NOBLE AP MOSUNNY   25  23  93 CALM      30.58S
PARIS          SUNNY     19  14  81 CALM      30.57R
PEORIA         SUNNY     28  16  60 E3        30.54F
PONTIAC        SUNNY     18  13  81 W3        30.55R
RANTOUL        SUNNY     22  14  71 NW5       30.54R WCI  16
ROBINSON       MOSUNNY   24  18  75 SW3       30.59R
SPRINGFIELD    MOSUNNY   28  17  63 NE3       30.56S
TAYLORVILLE    MOSUNNY   25  21  86 CALM      30.56S
$$

...REGIONAL REPORTS...


CITY           SKY/WX    TMP DP  RH WIND       PRES   REMARKS
CHICAGO O`HARE MOSUNNY   24  11  57 N7        30.50S WCI  16
KANKAKEE       SUNNY     17  12  80 CALM      30.54S
MOLINE         SUNNY     25  12  58 N3        30.53S
MOUNT VERNON   SUNNY     28  21  74 NE8       30.57R WCI  20
PITTSFIELD     MOSUNNY   26  19  73 N3        30.55F
QUINCY         PTSUNNY   25  15  66 CALM      30.54S
ROCKFORD       MOSUNNY   21  11  65 NW8       30.52F WCI  11
$$


CITY           SKY/WX    TMP DP  RH WIND       PRES   REMARKS
BURLINGTON     SUNNY     25  13  60 CALM      30.53S
CEDAR RAPIDS   SUNNY     16  11  80 NW9       30.52R WCI   4
DES MOINES     PTSUNNY   26  12  55 SE7       30.52S WCI  18
KIRKSVILLE     PTSUNNY   26  16  65 E7        30.52F WCI  18
OTTUMWA        SUNNY     23  14  68 E6        30.52F WCI  16
ST LOUIS       PTSUNNY   33  22  63 CALM      30.56R
$$


CITY           SKY/WX    TMP DP  RH WIND       PRES   REMARKS
TERRE HAUTE    SUNNY     26  16  65 CALM      30.56R
EVANSVILLE     MOSUNNY   32  17  54 NE12      30.56S WCI  23
INDIANAPOLIS   PTSUNNY   21  14  74 CALM      30.53S
LAFAYETTE      SUNNY     20  12  71 CALM      30.54R
MADISON        MOSUNNY   21   9  59 NW6       30.50S WCI  13
MILWAUKEE      SUNNY     23   9  55 NW7       30.49S WCI  15
$$





USA.gov is the U.S. government's official web portal to all federal, state and local government web resources and services.